"Period start","avg(HW err(1)/warn(2) (#))","avg(Visibility (m))","avg(Weather code (#))","avg(Precip intensity (mm/h))","min(HW err(1)/warn(2) (#))","max(HW err(1)/warn(2) (#))","std(HW err(1)/warn(2) (#))","med(HW err(1)/warn(2) (#))","min(Visibility (m))","max(Visibility (m))","std(Visibility (m))","med(Visibility (m))","min(Weather code (#))","max(Weather code (#))","std(Weather code (#))","med(Weather code (#))","min(Precip intensity (mm/h))","max(Precip intensity (mm/h))","std(Precip intensity (mm/h))","med(Precip intensity (mm/h))"
2014-07-07 00:00:00,0,46346,33,0.11,0,0,0,0,33150,50000,4787,47902,0,61,27,51,0.00,0.35,0.13,0.05
2014-07-07 00:10:00,1,26040,59,1.70,0,2,1,0,21044,36310,3995,24977,51,61,4,61,0.25,4.50,1.33,1.35
2014-07-07 00:20:00,2,25320,61,2.66,2,2,0,2,18858,43615,7323,22500,61,61,0,61,0.50,4.45,1.20,2.75
2014-07-07 00:30:00,2,34204,61,1.23,2,2,0,2,18918,50000,9705,33020,61,61,0,61,0.35,2.40,0.69,1.25
2014-07-07 00:40:00,2,48505,55,0.13,2,2,0,2,44459,50000,1994,49853,51,61,5,51,0.00,0.30,0.10,0.10
2014-07-07 00:50:00,0,48657,6,0.01,0,2,1,0,41994,50000,2402,50000,0,61,18,0,0.00,0.05,0.02,0.00
2014-07-07 01:00:00,0,45973,57,0.57,0,2,1,0,40330,50000,3107,46255,51,61,5,61,0.05,2.20,0.60,0.40
2014-07-07 01:10:00,2,35041,61,2.39,0,2,1,2,27413,46647,5374,34536,61,61,0,61,0.40,6.25,1.73,2.50
2014-07-07 01:20:00,2,33526,61,1.25,2,2,0,2,24197,39799,5145,34684,61,61,0,61,0.40,2.95,0.90,0.75
2014-07-07 01:30:00,2,35454,61,0.84,2,2,0,2,22788,47268,7348,37585,61,61,0,61,0.05,2.50,0.84,0.38
2014-07-07 01:40:00,1,49285,24,0.07,0,2,1,0,44912,50000,1518,50000,0,61,30,0,0.00,0.65,0.19,0.00
2014-07-07 01:50:00,0,45667,43,0.04,0,0,0,0,39174,50000,3657,45950,0,61,22,51,0.00,0.10,0.03,0.05
2014-07-07 02:00:00,0,49874,56,0.06,0,0,0,0,49196,50000,264,50000,41,61,8,61,0.00,0.25,0.07,0.05
2014-07-07 02:10:00,0,50000,6,0.00,0,2,1,0,50000,50000,0,50000,0,61,18,0,0.00,0.00,0.00,0.00
2014-07-07 02:20:00,2,46893,0,0.00,0,2,1,2,34906,50000,4727,50000,0,0,0,0,0.00,0.00,0.00,0.00
2014-07-07 02:30:00,0,48377,0,0.00,0,2,1,0,38763,50000,3359,50000,0,0,0,0,0.00,0.00,0.00,0.00
2014-07-07 02:40:00,1,43910,0,0.00,0,2,1,0,24798,50000,9050,49253,0,0,0,0,0.00,0.00,0.00,0.00
2014-07-07 02:50:00,1,46511,0,0.00,0,2,1,1,39698,50000,4373,48948,0,0,0,0,0.00,0.00,0.00,0.00
2014-07-07 03:00:00,1,43796,0,0.00,0,2,1,2,31413,50000,6279,45238,0,0,0,0,0.00,0.00,0.00,0.00
2014-07-07 03:10:00,2,43583,0,0.00,0,2,1,2,32751,49677,5411,45358,0,0,0,0,0.00,0.00,0.00,0.00
2014-07-07 03:20:00,0,49576,0,0.00,0,2,1,0,47031,50000,898,50000,0,0,0,0,0.00,0.00,0.00,0.00
2014-07-07 03:30:00,0,46566,0,0.00,0,0,0,0,35112,50000,5112,50000,0,0,0,0,0.00,0.00,0.00,0.00
2014-07-07 03:40:00,0,39767,0,0.00,0,0,0,0,32065,50000,5873,38106,0,0,0,0,0.00,0.00,0.00,0.00
2014-07-07 03:50:00,0,42568,0,0.00,0,0,0,0,30349,50000,8073,46459,0,0,0,0,0.00,0.00,0.00,0.00
2014-07-07 04:00:00,0,47766,0,0.00,0,0,0,0,36679,50000,4035,49920,0,0,0,0,0.00,0.00,0.00,0.00
2014-07-07 04:10:00,0,42948,0,0.00,0,0,0,0,31501,50000,6884,44586,0,0,0,0,0.00,0.00,0.00,0.00
2014-07-07 04:20:00,0,47669,0,0.00,0,0,0,0,42970,50000,3021,49351,0,0,0,0,0.00,0.00,0.00,0.00
2014-07-07 04:30:00,0,46873,0,0.00,0,0,0,0,35398,50000,4334,48671,0,0,0,0,0.00,0.00,0.00,0.00
2014-07-07 04:40:00,0,48294,0,0.00,0,0,0,0,41854,50000,2793,50000,0,0,0,0,0.00,0.00,0.00,0.00
2014-07-07 04:50:00,0,48358,0,0.00,0,0,0,0,37762,50000,3681,50000,0,0,0,0,0.00,0.00,0.00,0.00
2014-07-07 05:00:00,0,47882,0,0.00,0,0,0,0,43745,50000,2127,48494,0,0,0,0,0.00,0.00,0.00,0.00
2014-07-07 05:10:00,0,46008,0,0.00,0,0,0,0,40381,50000,3397,46024,0,0,0,0,0.00,0.00,0.00,0.00
2014-07-07 05:20:00,0,47286,0,0.00,0,0,0,0,42347,50000,2720,47826,0,0,0,0,0.00,0.00,0.00,0.00
2014-07-07 05:30:00,0,45927,0,0.00,0,0,0,0,32409,50000,5720,49798,0,0,0,0,0.00,0.00,0.00,0.00
2014-07-07 05:40:00,0,43681,0,0.00,0,0,0,0,17696,50000,10362,49052,0,0,0,0,0.00,0.00,0.00,0.00
2014-07-07 05:50:00,0,48658,0,0.00,0,0,0,0,44599,50000,2090,50000,0,0,0,0,0.00,0.00,0.00,0.00
2014-07-07 06:00:00,0,49693,0,0.00,0,0,0,0,46934,50000,920,50000,0,0,0,0,0.00,0.00,0.00,0.00
2014-07-07 06:10:00,0,49752,0,0.00,0,0,0,0,47984,50000,605,50000,0,0,0,0,0.00,0.00,0.00,0.00
2014-07-07 06:20:00,0,48244,0,0.00,0,0,0,0,44386,50000,2189,49474,0,0,0,0,0.00,0.00,0.00,0.00
2014-07-07 06:30:00,0,49865,0,0.00,0,0,0,0,48651,50000,405,50000,0,0,0,0,0.00,0.00,0.00,0.00
2014-07-07 06:40:00,0,49086,0,0.00,0,0,0,0,44914,50000,1613,50000,0,0,0,0,0.00,0.00,0.00,0.00
2014-07-07 06:50:00,0,49266,0,0.00,0,0,0,0,46366,50000,1215,50000,0,0,0,0,0.00,0.00,0.00,0.00
2014-07-07 07:00:00,0,48518,0,0.00,0,0,0,0,44357,50000,2051,50000,0,0,0,0,0.00,0.00,0.00,0.00
2014-07-07 07:10:00,0,39730,0,0.00,0,0,0,0,18733,50000,11759,44756,0,0,0,0,0.00,0.00,0.00,0.00
2014-07-07 07:20:00,0,49401,0,0.00,0,0,0,0,46042,50000,1245,50000,0,0,0,0,0.00,0.00,0.00,0.00
2014-07-07 07:30:00,0,45547,0,0.00,0,0,0,0,33239,50000,5326,47886,0,0,0,0,0.00,0.00,0.00,0.00
2014-07-07 07:40:00,0,45290,0,0.00,0,0,0,0,33505,50000,6300,49808,0,0,0,0,0.00,0.00,0.00,0.00
2014-07-07 07:50:00,0,47176,0,0.00,0,0,0,0,34517,50000,4968,50000,0,0,0,0,0.00,0.00,0.00,0.00
2014-07-07 08:00:00,0,48182,0,0.00,0,0,0,0,41813,50000,2975,50000,0,0,0,0,0.00,0.00,0.00,0.00
2014-07-07 08:10:00,0,46918,0,0.00,0,0,0,0,35699,50000,4250,48346,0,0,0,0,0.00,0.00,0.00,0.00
2014-07-07 08:20:00,0,49448,0,0.00,0,0,0,0,45959,50000,1244,50000,0,0,0,0,0.00,0.00,0.00,0.00
2014-07-07 08:30:00,0,49193,0,0.00,0,0,0,0,44186,50000,1729,50000,0,0,0,0,0.00,0.00,0.00,0.00
2014-07-07 08:40:00,0,49531,0,0.00,0,0,0,0,47575,50000,743,50000,0,0,0,0,0.00,0.00,0.00,0.00
2014-07-07 08:50:00,0,49758,0,0.00,0,0,0,0,48527,50000,470,50000,0,0,0,0,0.00,0.00,0.00,0.00
2014-07-07 09:00:00,0,49403,0,0.00,0,0,0,0,44091,50000,1771,50000,0,0,0,0,0.00,0.00,0.00,0.00
2014-07-07 09:10:00,0,49678,0,0.00,0,0,0,0,46782,50000,965,50000,0,0,0,0,0.00,0.00,0.00,0.00
2014-07-07 09:20:00,0,48862,0,0.00,0,0,0,0,43598,50000,1958,50000,0,0,0,0,0.00,0.00,0.00,0.00
2014-07-07 09:30:00,0,47084,0,0.00,0,0,0,0,40566,50000,3783,50000,0,0,0,0,0.00,0.00,0.00,0.00
2014-07-07 09:40:00,0,46981,0,0.00,0,0,0,0,41150,50000,3080,47904,0,0,0,0,0.00,0.00,0.00,0.00
2014-07-07 09:50:00,0,49164,0,0.00,0,0,0,0,42469,50000,2245,50000,0,0,0,0,0.00,0.00,0.00,0.00
2014-07-07 10:00:00,0,48881,0,0.00,0,0,0,0,47316,50000,1150,49119,0,0,0,0,0.00,0.00,0.00,0.00
2014-07-07 10:10:00,0,50000,0,0.00,0,0,0,0,50000,50000,0,50000,0,0,0,0,0.00,0.00,0.00,0.00
2014-07-07 10:20:00,0,48525,0,0.00,0,0,0,0,43282,50000,2457,50000,0,0,0,0,0.00,0.00,0.00,0.00
2014-07-07 10:30:00,0,49207,0,0.00,0,0,0,0,44200,50000,1745,50000,0,0,0,0,0.00,0.00,0.00,0.00
2014-07-07 10:40:00,0,48949,0,0.00,0,0,0,0,42436,50000,2312,50000,0,0,0,0,0.00,0.00,0.00,0.00
2014-07-07 10:50:00,0,47867,0,0.00,0,0,0,0,37939,50000,3811,50000,0,0,0,0,0.00,0.00,0.00,0.00
2014-07-07 11:00:00,1,46238,0,0.00,0,2,1,2,40888,50000,3654,47128,0,0,0,0,0.00,0.00,0.00,0.00
2014-07-07 11:10:00,2,35906,0,0.00,2,2,0,2,21632,50000,8721,34538,0,0,0,0,0.00,0.00,0.00,0.00
2014-07-07 11:20:00,2,42037,0,0.00,2,2,0,2,27766,50000,6978,43044,0,0,0,0,0.00,0.00,0.00,0.00
2014-07-07 11:30:00,2,42433,0,0.00,2,2,0,2,31258,50000,7768,45054,0,0,0,0,0.00,0.00,0.00,0.00
2014-07-07 11:40:00,2,40034,0,0.00,2,2,0,2,15647,50000,10562,44912,0,0,0,0,0.00,0.00,0.00,0.00
2014-07-07 11:50:00,2,39207,0,0.00,0,2,1,2,28987,50000,7172,37160,0,0,0,0,0.00,0.00,0.00,0.00
2014-07-07 12:00:00,1,43144,0,0.00,0,2,1,0,33220,50000,6383,43118,0,0,0,0,0.00,0.00,0.00,0.00
2014-07-07 12:10:00,0,46706,0,0.00,0,0,0,0,36677,50000,4219,48990,0,0,0,0,0.00,0.00,0.00,0.00
2014-07-07 12:20:00,0,49778,0,0.00,0,0,0,0,48695,50000,407,50000,0,0,0,0,0.00,0.00,0.00,0.00
2014-07-07 12:30:00,0,49930,0,0.00,0,0,0,0,49303,50000,209,50000,0,0,0,0,0.00,0.00,0.00,0.00
2014-07-07 12:40:00,0,49733,0,0.00,0,0,0,0,47328,50000,802,50000,0,0,0,0,0.00,0.00,0.00,0.00
2014-07-07 12:50:00,0,50000,0,0.00,0,0,0,0,50000,50000,0,50000,0,0,0,0,0.00,0.00,0.00,0.00
2014-07-07 13:00:00,0,49907,0,0.00,0,0,0,0,49070,50000,279,50000,0,0,0,0,0.00,0.00,0.00,0.00
2014-07-07 13:10:00,0,50000,0,0.00,0,0,0,0,50000,50000,0,50000,0,0,0,0,0.00,0.00,0.00,0.00
2014-07-07 13:20:00,0,50000,0,0.00,0,0,0,0,50000,50000,0,50000,0,0,0,0,0.00,0.00,0.00,0.00
2014-07-07 13:30:00,0,49896,0,0.00,0,0,0,0,48965,50000,310,50000,0,0,0,0,0.00,0.00,0.00,0.00
2014-07-07 13:40:00,0,50000,0,0.00,0,0,0,0,50000,50000,0,50000,0,0,0,0,0.00,0.00,0.00,0.00
2014-07-07 13:50:00,0,50000,0,0.00,0,0,0,0,50000,50000,0,50000,0,0,0,0,0.00,0.00,0.00,0.00
2014-07-07 14:00:00,0,50000,0,0.00,0,0,0,0,50000,50000,0,50000,0,0,0,0,0.00,0.00,0.00,0.00
2014-07-07 14:10:00,0,50000,0,0.00,0,0,0,0,50000,50000,0,50000,0,0,0,0,0.00,0.00,0.00,0.00
2014-07-07 14:20:00,0,50000,0,0.00,0,0,0,0,50000,50000,0,50000,0,0,0,0,0.00,0.00,0.00,0.00
2014-07-07 14:30:00,0,50000,0,0.00,0,0,0,0,50000,50000,0,50000,0,0,0,0,0.00,0.00,0.00,0.00
2014-07-07 14:40:00,0,50000,0,0.00,0,0,0,0,50000,50000,0,50000,0,0,0,0,0.00,0.00,0.00,0.00
2014-07-07 14:50:00,0,50000,0,0.00,0,0,0,0,50000,50000,0,50000,0,0,0,0,0.00,0.00,0.00,0.00
2014-07-07 15:00:00,0,50000,0,0.00,0,0,0,0,50000,50000,0,50000,0,0,0,0,0.00,0.00,0.00,0.00
2014-07-07 15:10:00,0,49410,0,0.00,0,0,0,0,44969,50000,1491,50000,0,0,0,0,0.00,0.00,0.00,0.00
2014-07-07 15:20:00,0,22957,0,0.00,0,0,0,0,9460,47991,13827,19179,0,0,0,0,0.00,0.00,0.00,0.00
2014-07-07 15:30:00,0,3348,7,0.00,0,0,0,0,2189,6984,1471,2788,0,10,5,10,0.00,0.00,0.00,0.00
2014-07-07 15:40:00,0,2447,10,0.00,0,0,0,0,1699,3300,495,2376,10,10,0,10,0.00,0.00,0.00,0.00
2014-07-07 15:50:00,0,1182,10,0.00,0,0,0,0,867,1575,232,1181,10,10,0,10,0.00,0.00,0.00,0.00
2014-07-07 16:00:00,0,794,28,0.00,0,0,0,0,711,976,75,762,10,34,9,34,0.00,0.00,0.00,0.00
2014-07-07 16:10:00,0,591,34,0.00,0,0,0,0,538,687,51,574,34,34,0,34,0.00,0.00,0.00,0.00
2014-07-07 16:20:00,0,537,34,0.00,0,0,0,0,434,604,45,545,34,34,0,34,0.00,0.00,0.00,0.00
2014-07-07 16:30:00,0,555,34,0.00,0,0,0,0,462,615,40,560,34,34,0,34,0.00,0.00,0.00,0.00
2014-07-07 16:40:00,0,575,34,0.00,0,0,0,0,537,645,30,575,34,34,0,34,0.00,0.00,0.00,0.00
2014-07-07 16:50:00,0,1027,34,0.00,0,0,0,0,578,1233,169,1042,33,34,0,34,0.00,0.00,0.00,0.00
2014-07-07 17:00:00,0,1393,27,0.00,0,0,0,0,951,1751,281,1459,20,33,5,30,0.00,0.00,0.00,0.00
2014-07-07 17:10:00,0,785,25,0.00,0,0,0,0,506,1275,240,755,20,32,6,20,0.00,0.00,0.00,0.00
2014-07-07 17:20:00,0,1296,32,0.00,0,0,0,0,611,1733,313,1390,32,32,0,32,0.00,0.00,0.00,0.00
2014-07-07 17:30:00,0,4084,20,0.00,0,0,0,0,603,8745,2550,3172,20,20,0,20,0.00,0.00,0.00,0.00
2014-07-07 17:40:00,0,2917,20,0.00,0,0,0,0,1112,7676,1829,2566,20,20,0,20,0.00,0.00,0.00,0.00
2014-07-07 17:50:00,0,1230,22,0.00,0,0,0,0,570,3002,802,910,20,32,4,20,0.00,0.00,0.00,0.00
2014-07-07 18:00:00,0,1170,33,0.00,0,0,0,0,781,2132,375,1030,32,33,0,33,0.00,0.00,0.00,0.00
2014-07-07 18:10:00,0,1257,25,0.00,0,0,0,0,657,1827,322,1202,20,30,5,25,0.00,0.00,0.00,0.00
2014-07-07 18:20:00,0,768,29,0.00,0,0,0,0,613,943,115,736,20,34,6,32,0.00,0.00,0.00,0.00
2014-07-07 18:30:00,0,839,34,0.00,0,0,0,0,604,1164,174,827,34,34,0,34,0.00,0.00,0.00,0.00
2014-07-07 18:40:00,0,966,32,0.00,0,0,0,0,611,1413,263,1024,30,34,2,32,0.00,0.00,0.00,0.00
2014-07-07 18:50:00,0,624,33,0.00,0,0,0,0,445,883,138,588,33,34,0,33,0.00,0.00,0.00,0.00
2014-07-07 19:00:00,0,672,34,0.00,0,0,0,0,456,1196,220,614,34,34,0,34,0.00,0.00,0.00,0.00
2014-07-07 19:10:00,0,559,33,0.00,0,0,0,0,415,783,127,496,30,34,2,34,0.00,0.00,0.00,0.00
2014-07-07 19:20:00,0,519,34,0.00,0,0,0,0,412,744,96,499,34,34,0,34,0.00,0.00,0.00,0.00
2014-07-07 19:30:00,0,554,34,0.00,0,0,0,0,420,639,69,566,34,34,0,34,0.00,0.00,0.00,0.00
2014-07-07 19:40:00,0,666,33,0.00,0,0,0,0,536,816,83,669,33,34,0,33,0.00,0.00,0.00,0.00
2014-07-07 19:50:00,0,599,33,0.00,0,0,0,0,463,996,175,500,33,33,0,33,0.00,0.00,0.00,0.00
2014-07-07 20:00:00,0,1430,30,0.00,0,0,0,0,750,1951,329,1446,20,33,5,33,0.00,0.00,0.00,0.00
2014-07-07 20:10:00,0,1532,20,0.00,0,0,0,0,844,2754,547,1384,20,20,0,20,0.00,0.00,0.00,0.00
2014-07-07 20:20:00,0,2743,20,0.00,0,2,1,0,1985,3560,487,2724,20,20,0,20,0.00,0.00,0.00,0.00
2014-07-07 20:30:00,0,2068,20,0.00,0,0,0,0,1284,2749,420,1928,20,20,0,20,0.00,0.00,0.00,0.00
2014-07-07 20:40:00,0,1904,20,0.00,0,0,0,0,1451,3411,568,1696,20,20,0,20,0.00,0.00,0.00,0.00
2014-07-07 20:50:00,0,6596,20,0.00,0,0,0,0,3381,8606,1437,6938,20,20,0,20,0.00,0.00,0.00,0.00
2014-07-07 21:00:00,0,15221,20,0.00,0,0,0,0,6767,27254,6648,14520,20,20,0,20,0.00,0.00,0.00,0.00
2014-07-07 21:10:00,0,14347,0,0.00,0,0,0,0,7771,24565,5397,12634,0,0,0,0,0.00,0.00,0.00,0.00
2014-07-07 21:20:00,0,16964,0,0.00,0,0,0,0,11053,26687,4870,16171,0,0,0,0,0.00,0.00,0.00,0.00
2014-07-07 21:30:00,0,15599,0,0.00,0,0,0,0,9174,27806,4762,14028,0,0,0,0,0.00,0.00,0.00,0.00
2014-07-07 21:40:00,0,34995,0,0.00,0,0,0,0,18688,48450,10404,37370,0,0,0,0,0.00,0.00,0.00,0.00
2014-07-07 21:50:00,0,48220,0,0.00,0,0,0,0,40625,50000,2813,49776,0,0,0,0,0.00,0.00,0.00,0.00
2014-07-07 22:00:00,0,49481,0,0.00,0,0,0,0,47470,50000,803,50000,0,0,0,0,0.00,0.00,0.00,0.00
2014-07-07 22:10:00,0,49733,0,0.00,0,0,0,0,48676,50000,526,50000,0,0,0,0,0.00,0.00,0.00,0.00
2014-07-07 22:20:00,0,49310,0,0.00,0,0,0,0,46092,50000,1394,50000,0,0,0,0,0.00,0.00,0.00,0.00
2014-07-07 22:30:00,0,49148,0,0.00,0,0,0,0,46490,50000,1252,50000,0,0,0,0,0.00,0.00,0.00,0.00
2014-07-07 22:40:00,0,50000,0,0.00,0,0,0,0,50000,50000,0,50000,0,0,0,0,0.00,0.00,0.00,0.00
2014-07-07 22:50:00,0,49905,0,0.00,0,0,0,0,49046,50000,286,50000,0,0,0,0,0.00,0.00,0.00,0.00
2014-07-07 23:00:00,0,49319,0,0.00,0,0,0,0,44908,50000,1557,50000,0,0,0,0,0.00,0.00,0.00,0.00
2014-07-07 23:10:00,0,47369,0,0.00,0,0,0,0,39115,50000,3433,48339,0,0,0,0,0.00,0.00,0.00,0.00
2014-07-07 23:20:00,0,48744,0,0.00,0,0,0,0,38200,50000,3518,50000,0,0,0,0,0.00,0.00,0.00,0.00
2014-07-07 23:30:00,0,46059,0,0.00,0,0,0,0,32945,50000,5063,48234,0,0,0,0,0.00,0.00,0.00,0.00
2014-07-07 23:40:00,0,46272,0,0.00,0,0,0,0,36151,50000,4049,47596,0,0,0,0,0.00,0.00,0.00,0.00
2014-07-07 23:50:00,0,49188,0,0.00,0,0,0,0,46285,50000,1378,50000,0,0,0,0,0.00,0.00,0.00,0.00
